loading
|

THOR AGENA B DEB, 1951

Orbit data source: Space-Track

THOR AGENA B DEB, 1951 is space debris in LEO originally from a launch on Mon, 29 Nov 1965 UTC launched from the Air Force Western Test Range (AFWTR). Debris objects in space refer to the collection of defunct objects orbiting the Earth. Examples of debris include non-operational satellites, rocket bodies, and fragments generated from explosions, collisions, or faulty payload assembly.

Loading next visibility...
Loading greatness...
THOR AGENA B DEB details
Identifier
1951, 1965-098G
Orbit
LEO
Last TLE update14 hours ago
Origin
Flag of USGSFC (US)
ManufacturerUnknown
MissionSpacecraft
Bus & MotorUnknown bus, Unknown motor
Mass~1 kg wet, ~1 kg dry
Launch date (UTC)
1965-11-29 (59 years ago)
Launch vehicleUnknown
Launch site
Air Force Western Test Range (AFWTR)
Object type
Payload
Rocket body
Debris
Shape & HBRHalf Cyl + Cone, 1.5 m
Radar Cross Section0.531 m², Medium (>0.1 m² and < 1m²)

Expand to show TLE details & history

TLE from 14 hours ago
0 THOR AGENA B DEB
1 01951U 65098G   24278.38624700  .00045498  00000-0  87936-2 0  9992
2 01951  79.6142 244.5736 0810141 350.9774   7.7495 13.47379517723593
Epoch: 2024-10-04T09:16Z
Definitive object data (Epoch: 2024-10-04T09:16:11.74Z)
Latitude-0.00009°
Longitude91.96701°
Altitude486.756 km
Speed7.921 km/s
True Right ascension16h 18m 17s
True Declination0° 00' 00"
Sunlit
Object was in daylight at TLE epoch
Predictive object data (real-time)
Latitude-77.56313°
Longitude-32.87198°
Altitude1,024.816 km
Speed7.381 km/s
Apparent Right ascension05h 43m 46s
Apparent Declination-61° 24' 44"
Sunlit
Object is in daylight
Predictive observer data (real-time)
Local Sidereal Time17:01:56
Azimuth193.158° SSW
Elevation-67.57°
Doppler factor1
Orbital elements
Apogee1,683.382 km
Perigee475.078 km
Semi-major axis7,457.367 km
Eccentricity0.0810141
Inclination79.6142°
RAAN244.5736°
Arg. of periapsis350.9774°
True anomaly9.14008°
Mean anomaly7.7495°
Eccentric anomaly8.42999°
Mean motion3.37027 °/min
BSTAR0.0087936
Period106.82 mins
No data available

THOR AGENA B DEB Visibility forecast

Observer location: 39.9160978°, -105.1181434

THOR AGENA B DEB is not visible in the next 10 days
Span
Click to sort rows by Start time (UTC) header in descending order
Start Az.
Max El. time (UTC)
Max El. Az.
Max El.
End time (UTC)
End Az.